Terminal Aerodrome Forecast
Issued by NWS

Home | Current Version | Previous Version | Text Only | Print | Product List | Glossary On
Versions: 1 2 3 4 5 6 7 8 9 10 11 12 13 14 15 16 17 18 19 20 21 22 23 24 25 26 27 28 29 30 31 32 33 34
000
FTAK31 PANC 231740
TAFAIL
TAF
PAIL 231740Z 2318/2418 02008KT P6SM BKN150
     FM240000 12015G25KT P6SM VCSH BKN060
     FM240600 09018G28KT P6SM -SHRA OVC040
     FM241200 09015G25KT 5SM RA BR OVC015=

USA.gov is the U.S. government's official web portal to all federal, state and local government web resources and services.